Location: Belvedere Heights
(33.9836°N, 117.3109°W)
Time: 07:05:09
(UTC+00:00)

POLYITAN 1 - Pass Details

Date: 27 May 2024
Orbit: 548 x 570 km, 98.1° (Epoch: 13 June)

Event Time Altitude Azimuth Distance (km) Brightness Sun altitude
Rises 11:05:40 0° 13° (NNE) 2,743 ? -17.1°
Reaches altitude 10° 11:07:49 10° 15° (NNE) 1,840 ? -16.8°
Maximum altitude 11:11:48 78° 102° (ESE) 569 ? -16.2°
Enters shadow 11:14:24 21° 187° (S) 1,278 ? -15.7°
